{"data":{"norad_id":62432,"epoch":"2026-05-24T22:39:48.278592Z","epoch_age_seconds":83432,"freshness":"FRESH","line1":"1 62432U 24251A   26144.94430878  .00028671  00000+0  97625-3 0  9996","line2":"2 62432  53.1604 338.2494 0001065  88.2600 271.8523 15.30205609 79664","mean_motion":15.30205609,"eccentricity":0.0001065,"inclination_deg":53.1604,"raan_deg":338.2494,"arg_perigee_deg":88.26,"mean_anomaly_deg":271.8523,"bstar":0.00097625,"rev_number":7966,"period_min":94.105000761372,"perigee_km":474.46844179572,"apogee_km":475.9282022193,"semimajor_km":6853.3353220075,"source":"CELESTRAK","updated_at":"2026-05-25T13:38:19.656632Z"}}